Location: ???????
(55.4362°N, 38.1183°E)
Time: 11:28:20
(UTC+00:00)

deb Delta 139 - Pass Details

Date: 30 January 2022
Orbit: 790 x 1093 km, 98.7° (Epoch: 23 May)

Event Time Altitude Azimuth Distance (km) Brightness Sun altitude
Rises 03:58:27 0° 16° (NNE) 3,675 ? -12.0°
Reaches altitude 10° 04:00:51 10° 17° (NNE) 2,765 ? -11.7°
Maximum altitude 04:07:09 86° 106° (ESE) 1,051 ? -10.8°
Drops below altitude 10° 04:13:49 10° 197° (SSW) 2,911 ? -9.9°
Sets 04:16:23 0° 198° (SSW) 3,880 ? -9.6°
